Miscellaneous Local Product
Issued by NWS North Platte, NE

Home | Current Version | Previous Version | Text Only | Print | Product List | Glossary On
Versions: 1 2 3 4 5 6 7 8 9 10 11 12 13 14 15 16 17 18 19 20 21 22 23 24 25 26 27 28 29 30 31 32 33 34 35 36 37 38 39 40 41 42 43 44 45 46 47 48 49 50
000
AXUS43 KLBF 200510
MISLBF


WESTERN AND NORTH CENTRAL NEBRASKA HOURLY WEATHER ROUNDUP
NATIONAL WEATHER SERVICE NORTH PLATTE NE
1200 AM CDT FRI APR 20 2018

NOTE: "FAIR" INDICATES FEW OR NO CLOUDS BELOW 12,000 FEET WITH NO
SIGNIFICANT WEATHER AND/OR OBSTRUCTIONS TO VISIBILITY.

NOTE: STATIONS NOT REPORTING VARIABLES SUCH AS SKY/WEATHER OR
PRESSURE ARE PROVIDED BY RAWS AND APRS NETWORKS AND ARE NOT UNDER
NATIONAL WEATHER SERVICE QUALITY CONTROL.

...OBSERVATIONS IN AND NEAR THE EASTERN PANHANDLE OF NEBRASKA...

CITY           SKY/WX    TMP DP  RH WIND       PRES   REMARKS
PINE RIDGE     CLOUDY    46  30  53 E14       30.17F
GORDON         FAIR      44  29  55 SE16      30.20R
CHADRON        CLOUDY    48  28  46 SE21G30   30.12F
ALLIANCE       CLOUDY    44  27  51 SE28G33   30.13S
SIDNEY         MOCLDY    42  26  53 SE18G31   30.13S
CRESCENT LAKE    N/A     45  27  48 SE15G26     N/A
$$

...OBSERVATIONS IN NORTHERN NEBRASKA AND FAR SOUTHERN SOUTH DAKOTA...

CITY           SKY/WX    TMP DP  RH WIND       PRES   REMARKS
WINNER         FAIR      36  27  69 SE14      30.33F WCI  27
VALENTINE      CLOUDY    39  31  72 E10       30.29F WCI  32
AINSWORTH      CLOUDY    35  31  86 E8        30.30F WCI  28
O`NEILL        MOCLDY    40  30  68 E7        30.36S WCI  35
THEDFORD       CLOUDY    44  29  55 SE12      30.28S
BROKEN BOW     CLOUDY    42  26  53 E12       30.30F
ORD            CLOUDY    35  27  72 CALM      30.34R
ALBION         CLOUDY    37  28  68 CALM      30.37S
VALENTINE NWR    N/A     42  24  49 SE12        N/A
HALSEY           N/A     42  25  51 SE8         N/A
BUTTE            N/A     35  32  88 E12         N/A  WCI  27
CHAMBERS         N/A     38  24  56 E3          N/A
EWING            N/A     38  31  74 E5          N/A  WCI  34
$$

...OBSERVATIONS IN SOUTHWEST NEBRASKA AND FAR NORTHEAST COLORADO...

CITY           SKY/WX    TMP DP  RH WIND       PRES   REMARKS
WRAY           FAIR      45  27  49 SE18      30.16S
HOLYOKE        FAIR      46  25  42 SE23G29   30.17S
IMPERIAL       CLOUDY    44  26  49 E21       30.20S
OGALLALA       CLOUDY    47  27  45 SE17G23   30.22R
NORTH PLATTE   CLOUDY    40  29  64 SE12      30.26S WCI  33
MCCOOK         MOCLDY    43  28  55 E9        30.26S
LEXINGTON      CLOUDY    43  28  54 SE10      30.31S
STAPLETON        N/A     42  28  56 CALM        N/A
GOTHENBURG       N/A     41  26  55 SE6         N/A
CALLAWAY         N/A     43  29  58 SE14        N/A
$$

...OBSERVATIONS IN CENTRAL LINCOLN COUNTY AREA...

CITY           SKY/WX    TMP DP  RH WIND       PRES   REMARKS
N.P. AIRPORT   CLOUDY    40  29  64 SE12      30.26S WCI  33
N.P. DOWNTOWN    N/A     44  30  57 CALM        N/A
N.P. SOUTHEAST   N/A     42  29  59 E5          N/A
N.P. HILLCREST   N/A     43  29  58 E13         N/A
$$

...OBSERVATIONS ACROSS THE ROCKIES AND WESTERN HIGH PLAINS...

CITY           SKY/WX    TMP DP  RH WIND       PRES   REMARKS
RAPID CITY     CLOUDY    43  31  62 SE14      30.18S
SCOTTSBLUFF    MOCLDY    46  28  49 SE26G33   30.10S
CHEYENNE       PTCLDY    42  24  49 SE18G32   30.04R
DENVER         MOCLDY    52  21  29 SE29G37   29.96S
BERTHOUD PASS  FAIR      27  16  63 S39G53    30.14F WCI   8
MONARCH PASS   CLOUDY    32  18  55 S17G26    30.25F WCI  21
ASPEN          CLOUDY    51  23  33 S14       29.91F
STEAMBOAT      MOCLDY    50  29  43 E5        29.90S
LARAMIE        CLOUDY    42  20  41 SE37G46   29.95F
CASPER         MOCLDY    48  25  40 E20       29.94S
$$

...OBSERVATIONS ACROSS THE NORTHERN PLAINS...

CITY           SKY/WX    TMP DP  RH WIND       PRES   REMARKS
BISMARCK       MOCLDY    38  31  76 E3        30.34S
FARGO          FAIR      38  32  79 SE6       30.38S WCI  33
PIERRE         MOCLDY    37  29  72 SE15      30.31F WCI  28
SIOUX FALLS    CLOUDY    32  25  75 E6        30.44R WCI  26
$$

...OBSERVATIONS ACROSS THE CENTRAL AND SOUTHERN PLAINS...

CITY           SKY/WX    TMP DP  RH WIND       PRES   REMARKS
OMAHA          CLEAR     45  26  47 E7        30.41R
GRAND ISLAND   CLOUDY    41  28  60 SE8       30.36S
KANSAS CITY    CLEAR     44  28  53 SE7       30.41R
WICHITA        CLOUDY    47  29  49 E9        30.33F
DODGE CITY     CLOUDY    43  26  51 SE13      30.27S
OKLAHOMA CITY  PTCLDY    50  33  52 E14       30.29F
DALLAS         PTCLDY    55  37  50 E7        30.25F
AMARILLO       CLOUDY    50  25  37 SE16      30.20F
$$




USA.gov is the U.S. government's official web portal to all federal, state and local government web resources and services.